timestamp,wind_dir_avg,wind_spd_avg,wind_spd_max_dir,wind_spd_gust,battery_voltage,lat,long
2022-08-10 00:04:00+00:00,70.0,12.51,71.0,13.92,12.41,47.59359,-54.27349
2022-08-10 00:14:01+00:00,70.0,11.52,73.0,15.39,12.41,47.59359,-54.27349
2022-08-10 00:24:01+00:00,68.0,11.63,69.0,17.42,12.41,47.59359,-54.27349
2022-08-10 00:34:01+00:00,71.0,11.25,77.0,15.0,12.41,47.59359,-54.27349
2022-08-10 00:44:01+00:00,66.0,12.4,74.0,16.81,12.41,47.59359,-54.27349
2022-08-10 00:54:01+00:00,59.0,11.16,60.0,12.5,12.41,47.59359,-54.27349
2022-08-10 01:04:01+00:00,60.0,10.8,60.0,12.78,12.41,47.59359,-54.27349
2022-08-10 01:14:01+00:00,60.0,11.7,59.0,13.66,12.41,47.59359,-54.27349
2022-08-10 01:24:01+00:00,63.0,11.44,66.0,13.92,12.41,47.59359,-54.27349
2022-08-10 01:34:01+00:00,64.0,11.68,61.0,15.77,12.41,47.59359,-54.27349
2022-08-10 01:44:01+00:00,67.0,11.05,72.0,12.24,12.41,47.59359,-54.27349
2022-08-10 01:54:01+00:00,61.0,10.5,61.0,13.06,12.41,47.59359,-54.27349
2022-08-10 02:04:01+00:00,68.0,11.83,73.0,13.84,12.41,47.59359,-54.27349
2022-08-10 02:14:00+00:00,69.0,11.06,78.0,13.62,12.33,47.59359,-54.27349
2022-08-10 02:24:00+00:00,70.0,11.84,72.0,13.65,12.33,47.59359,-54.27349
2022-08-10 02:34:00+00:00,63.0,12.0,71.0,18.56,12.33,47.59359,-54.27349
2022-08-10 02:44:00+00:00,61.0,11.03,56.0,14.25,12.33,47.59359,-54.27349
2022-08-10 02:54:00+00:00,68.0,10.61,72.0,12.45,12.33,47.59359,-54.27349
2022-08-10 03:04:00+00:00,58.0,11.25,55.0,13.25,12.33,47.59359,-54.27349
2022-08-10 03:14:00+00:00,63.0,13.58,63.0,17.84,12.33,47.59359,-54.27349
2022-08-10 03:24:00+00:00,63.0,12.73,72.0,18.46,12.33,47.59359,-54.27349
2022-08-10 03:34:00+00:00,72.0,16.44,72.0,19.35,12.33,47.59359,-54.27349
2022-08-10 03:44:00+00:00,67.0,11.68,72.0,13.2,12.33,47.59359,-54.27349
2022-08-10 03:54:00+00:00,59.0,11.21,61.0,13.14,12.33,47.59359,-54.27349
2022-08-10 04:04:00+00:00,59.0,9.99,54.0,12.37,12.33,47.59359,-54.27349
2022-08-10 04:14:00+00:00,63.0,11.04,69.0,12.34,12.25,47.59359,-54.27349
2022-08-10 04:24:00+00:00,57.0,11.82,56.0,14.3,12.25,47.59359,-54.27349
2022-08-10 04:34:00+00:00,60.0,11.02,66.0,13.51,12.25,47.59359,-54.27349
2022-08-10 04:44:00+00:00,52.0,12.17,52.0,14.57,12.25,47.59359,-54.27349
2022-08-10 04:54:00+00:00,51.0,12.34,50.0,13.57,12.25,47.59359,-54.27349
2022-08-10 05:04:00+00:00,53.0,12.2,50.0,13.8,12.25,47.59359,-54.27349
2022-08-10 05:14:00+00:00,63.0,12.7,72.0,19.02,12.25,47.59359,-54.27349
2022-08-10 05:24:00+00:00,54.0,14.0,61.0,19.17,12.25,47.59359,-54.27349
2022-08-10 05:34:00+00:00,55.0,13.34,56.0,14.79,12.25,47.59359,-54.27349
2022-08-10 05:44:00+00:00,47.0,13.43,49.0,15.56,12.25,47.59359,-54.27349
2022-08-10 05:54:00+00:00,54.0,13.43,61.0,16.41,12.25,47.59359,-54.27349
2022-08-10 06:04:00+00:00,52.0,13.65,53.0,16.08,12.25,47.59359,-54.27349
2022-08-10 06:14:01+00:00,50.0,12.37,48.0,15.02,12.25,47.59359,-54.27349
2022-08-10 06:24:01+00:00,51.0,12.86,50.0,14.91,12.25,47.59359,-54.27349
2022-08-10 06:34:01+00:00,53.0,13.19,50.0,14.61,12.25,47.59359,-54.27349
2022-08-10 06:44:01+00:00,60.0,13.83,66.0,18.67,12.25,47.59359,-54.27349
2022-08-10 06:54:01+00:00,54.0,11.97,52.0,13.9,12.25,47.59359,-54.27349
2022-08-10 07:04:01+00:00,57.0,13.28,56.0,17.22,12.25,47.59359,-54.27349
2022-08-10 07:14:00+00:00,56.0,13.18,75.0,18.16,12.17,47.59359,-54.27349
2022-08-10 07:24:00+00:00,56.0,12.42,53.0,15.0,12.17,47.59359,-54.27349
2022-08-10 07:34:00+00:00,52.0,14.55,61.0,19.14,12.17,47.59359,-54.27349
2022-08-10 07:44:00+00:00,52.0,12.84,51.0,14.77,12.17,47.59359,-54.27349
2022-08-10 07:54:00+00:00,55.0,14.0,64.0,19.17,12.17,47.59359,-54.27349
2022-08-10 08:04:00+00:00,53.0,12.6,59.0,14.41,12.17,47.59359,-54.27349
2022-08-10 08:14:00+00:00,50.0,13.18,48.0,15.42,12.25,47.59359,-54.27349
2022-08-10 08:24:00+00:00,43.0,12.83,44.0,14.62,12.25,47.59359,-54.27349
2022-08-10 08:34:00+00:00,42.0,12.94,39.0,15.91,12.25,47.59359,-54.27349
2022-08-10 08:44:00+00:00,46.0,12.51,33.0,14.68,12.25,47.59359,-54.27349
2022-08-10 08:54:00+00:00,50.0,13.0,56.0,16.32,12.25,47.59359,-54.27349
2022-08-10 09:04:00+00:00,52.0,13.4,58.0,15.44,12.25,47.59359,-54.27349
2022-08-10 09:14:00+00:00,51.0,13.14,53.0,15.13,12.17,47.59359,-54.27349
2022-08-10 09:24:00+00:00,49.0,13.98,50.0,15.16,12.17,47.59359,-54.27349
2022-08-10 09:34:00+00:00,55.0,12.81,56.0,14.4,12.17,47.59359,-54.27349
2022-08-10 09:44:00+00:00,53.0,12.32,53.0,13.3,12.17,47.59359,-54.27349
2022-08-10 09:54:00+00:00,51.0,12.29,51.0,14.59,12.17,47.59359,-54.27349
2022-08-10 10:04:00+00:00,54.0,12.02,57.0,13.61,12.17,47.59359,-54.27349
2022-08-10 10:14:01+00:00,50.0,12.24,48.0,14.38,12.33,47.59359,-54.27349
2022-08-10 10:24:01+00:00,52.0,12.03,55.0,13.96,12.33,47.59359,-54.27349
2022-08-10 10:34:01+00:00,54.0,11.91,55.0,13.76,12.33,47.59359,-54.27349
2022-08-10 10:44:01+00:00,53.0,11.99,51.0,13.91,12.33,47.59359,-54.27349
2022-08-10 10:54:01+00:00,47.0,12.03,52.0,14.09,12.33,47.59359,-54.27349
2022-08-10 11:04:01+00:00,54.0,12.3,54.0,14.22,12.33,47.59359,-54.27349
2022-08-10 11:14:00+00:00,56.0,10.85,54.0,12.9,13.37,47.59359,-54.27349
2022-08-10 11:24:00+00:00,53.0,10.98,51.0,12.6,13.37,47.59359,-54.27349
2022-08-10 11:34:00+00:00,54.0,12.07,53.0,13.78,13.37,47.59359,-54.27349
2022-08-10 11:44:00+00:00,46.0,12.12,45.0,14.14,13.37,47.59359,-54.27349
2022-08-10 11:54:00+00:00,46.0,11.66,43.0,13.11,13.37,47.59359,-54.27349
2022-08-10 12:04:00+00:00,44.0,11.8,39.0,13.59,13.37,47.59359,-54.27349
2022-08-10 12:14:01+00:00,53.0,11.69,56.0,13.54,13.37,47.59359,-54.27349
2022-08-10 12:24:01+00:00,57.0,10.65,56.0,13.3,13.37,47.59359,-54.27349
2022-08-10 12:34:01+00:00,54.0,11.71,54.0,12.97,13.37,47.59359,-54.27349
2022-08-10 12:44:01+00:00,49.0,12.57,48.0,14.68,13.37,47.59359,-54.27349
2022-08-10 12:54:01+00:00,54.0,11.92,55.0,13.53,13.37,47.59359,-54.27349
2022-08-10 13:04:01+00:00,54.0,12.59,54.0,14.86,13.37,47.59359,-54.27349
2022-08-10 13:14:00+00:00,54.0,12.09,54.0,14.3,13.92,47.59359,-54.27349
2022-08-10 13:24:00+00:00,55.0,9.87,61.0,11.11,13.92,47.59359,-54.27349
2022-08-10 13:34:00+00:00,49.0,11.58,43.0,13.22,13.92,47.59359,-54.27349
2022-08-10 13:44:00+00:00,54.0,9.91,51.0,10.91,13.92,47.59359,-54.27349
2022-08-10 13:54:00+00:00,53.0,11.65,52.0,12.95,13.92,47.59359,-54.27349
2022-08-10 14:04:00+00:00,58.0,10.17,65.0,11.8,13.92,47.59359,-54.27349
2022-08-10 14:14:00+00:00,55.0,9.58,47.0,11.38,13.68,47.59359,-54.27349
2022-08-10 14:24:00+00:00,50.0,10.84,52.0,12.54,13.68,47.59359,-54.27349
2022-08-10 14:34:00+00:00,55.0,9.73,62.0,11.46,13.68,47.59359,-54.27349
2022-08-10 14:44:00+00:00,48.0,10.6,59.0,12.29,13.68,47.59359,-54.27349
2022-08-10 14:54:00+00:00,51.0,9.74,49.0,12.62,13.68,47.59359,-54.27349
2022-08-10 15:04:00+00:00,51.0,11.3,51.0,12.58,13.68,47.59359,-54.27349
2022-08-10 15:14:00+00:00,48.0,9.76,42.0,10.94,14.32,47.59359,-54.27349
2022-08-10 15:24:00+00:00,52.0,10.12,55.0,11.73,14.32,47.59359,-54.27349
2022-08-10 15:34:00+00:00,51.0,10.53,52.0,11.48,14.32,47.59359,-54.27349
2022-08-10 15:44:00+00:00,49.0,9.47,49.0,10.6,14.32,47.59359,-54.27349
2022-08-10 15:54:00+00:00,46.0,9.78,46.0,10.91,14.32,47.59359,-54.27349
2022-08-10 16:04:00+00:00,51.0,10.66,53.0,11.55,14.32,47.59359,-54.27349
2022-08-10 16:14:01+00:00,54.0,10.46,59.0,11.58,13.84,47.59359,-54.27349
2022-08-10 16:24:01+00:00,54.0,10.01,52.0,11.22,13.84,47.59359,-54.27349
2022-08-10 16:34:01+00:00,54.0,11.57,55.0,12.71,13.84,47.59359,-54.27349
2022-08-10 16:44:01+00:00,53.0,10.09,58.0,12.64,13.84,47.59359,-54.27349
2022-08-10 16:54:01+00:00,45.0,10.03,36.0,12.2,13.84,47.59359,-54.27349
2022-08-10 17:04:01+00:00,50.0,10.42,48.0,12.44,13.84,47.59359,-54.27349
2022-08-10 17:14:01+00:00,49.0,9.26,52.0,10.27,14.32,47.59359,-54.27349
2022-08-10 17:24:01+00:00,51.0,8.97,39.0,10.73,14.32,47.59359,-54.27349
2022-08-10 17:34:01+00:00,59.0,8.78,56.0,9.84,14.32,47.59359,-54.27349
2022-08-10 17:44:01+00:00,51.0,9.0,51.0,10.26,14.32,47.59359,-54.27349
2022-08-10 17:54:01+00:00,55.0,8.96,59.0,9.99,14.32,47.59359,-54.27349
2022-08-10 18:04:01+00:00,50.0,9.6,51.0,10.81,14.32,47.59359,-54.27349
2022-08-10 18:14:01+00:00,56.0,9.12,62.0,10.46,13.68,47.59359,-54.27349
2022-08-10 18:24:01+00:00,51.0,9.29,49.0,10.28,13.68,47.59359,-54.27349
2022-08-10 18:34:01+00:00,59.0,9.53,59.0,10.47,13.68,47.59359,-54.27349
2022-08-10 18:44:01+00:00,54.0,8.7,51.0,9.99,13.68,47.59359,-54.27349
2022-08-10 18:54:01+00:00,63.0,7.24,59.0,8.13,13.68,47.59359,-54.27349
2022-08-10 19:04:01+00:00,54.0,7.92,54.0,8.49,13.68,47.59359,-54.27349
2022-08-10 19:14:00+00:00,52.0,8.75,55.0,10.12,13.68,47.59359,-54.27349
2022-08-10 19:24:00+00:00,51.0,8.45,44.0,9.33,13.68,47.59359,-54.27349
2022-08-10 19:34:00+00:00,51.0,8.75,48.0,9.77,13.68,47.59359,-54.27349
2022-08-10 19:44:00+00:00,62.0,7.55,59.0,8.98,13.68,47.59359,-54.27349
2022-08-10 19:54:00+00:00,63.0,7.73,59.0,8.72,13.68,47.59359,-54.27349
2022-08-10 20:04:00+00:00,68.0,7.74,69.0,8.62,13.68,47.59359,-54.27349
2022-08-10 20:14:01+00:00,69.0,7.2,62.0,7.86,13.6,47.59359,-54.27349
2022-08-10 20:24:01+00:00,71.0,6.71,67.0,8.53,13.6,47.59359,-54.27349
2022-08-10 20:34:01+00:00,71.0,6.26,72.0,7.54,13.6,47.59359,-54.27349
2022-08-10 20:44:01+00:00,67.0,7.95,68.0,8.67,13.6,47.59359,-54.27349
2022-08-10 20:54:01+00:00,71.0,6.81,69.0,7.66,13.6,47.59359,-54.27349
2022-08-10 21:04:01+00:00,69.0,6.82,68.0,7.75,13.6,47.59359,-54.27349
2022-08-10 21:14:00+00:00,72.0,7.02,72.0,8.05,13.37,47.59359,-54.27349
2022-08-10 21:24:00+00:00,71.0,6.93,66.0,8.54,13.37,47.59359,-54.27349
2022-08-10 21:34:00+00:00,66.0,7.25,62.0,7.97,13.37,47.59359,-54.27349
2022-08-10 21:44:00+00:00,67.0,7.01,63.0,7.76,13.37,47.59359,-54.27349
2022-08-10 21:54:00+00:00,69.0,7.22,64.0,8.0,13.37,47.59359,-54.27349
2022-08-10 22:04:00+00:00,70.0,5.84,69.0,7.19,13.37,47.59359,-54.27349
2022-08-10 22:14:00+00:00,68.0,7.09,60.0,8.05,12.97,47.59359,-54.27349
2022-08-10 22:24:00+00:00,73.0,6.45,68.0,7.68,12.97,47.59359,-54.27349
2022-08-10 22:34:00+00:00,73.0,6.24,73.0,6.97,12.97,47.59359,-54.27349
2022-08-10 22:44:00+00:00,75.0,5.27,78.0,6.51,12.97,47.59359,-54.27349
2022-08-10 22:54:00+00:00,77.0,3.08,59.0,5.3,12.97,47.59359,-54.27349
2022-08-10 23:04:00+00:00,75.0,5.06,56.0,7.18,12.97,47.59359,-54.27349
2022-08-10 23:14:00+00:00,72.0,4.92,67.0,6.22,12.49,47.59359,-54.27349
2022-08-10 23:24:00+00:00,75.0,3.87,71.0,5.18,12.49,47.59359,-54.27349
2022-08-10 23:34:00+00:00,86.0,2.61,116.0,4.98,12.49,47.59359,-54.27349
2022-08-10 23:44:00+00:00,83.0,3.88,87.0,4.83,12.49,47.59359,-54.27349
2022-08-10 23:54:00+00:00,67.0,4.75,66.0,5.6,12.49,47.59359,-54.27349
